Gastonia, NC

2:53 AM EST on February 22, 2017 (GMT -0500)
Gastonia Municipal

Weather History for KAKH - February, 2013

Change the Weather History Date:

Saturday, February 2, 2013

  Actual Average (KCLT) Record (KCLT)
Temperature  
Mean Temperature 34 °F -  
Max Temperature 46 °F 54 °F 80 °F (1989)
Min Temperature 21 °F 34 °F 10 °F (1917)
Degree Days  
Heating Degree Days 32    
Moisture  
Dew Point 18 °F    
Average Humidity 51    
Maximum Humidity 83    
Minimum Humidity 23    
Precipitation  
Precipitation 0.00 in - - ()
Sea Level Pressure  
Sea Level Pressure 30.23 in    
Wind  
Wind Speed 4 mph (SSW)    
Max Wind Speed 12 mph    
Max Gust Speed 24 mph    
Visibility 10 miles    
Events Rain    
Averages and records for this station are not official NWS values.
T = Trace of Precipitation, MM = Missing Value Source: NWS Daily Summary

Daily Weather History Graph

Daily Weather History Graph

Search for Another Location

Airport or City:

Trip Planner

Search our weather history database for the weather conditions in past years. The results will help you decide how hot, cold, wet, or windy it might be!

Date:

Astronomy

Feb. 02, 2013 Rise Set
Actual Time 7:22 AM EST 5:54 PM EST
Civil Twilight 6:56 AM EST 6:20 PM EST
Nautical Twilight 6:25 AM EST 6:51 PM EST
Astronomical Twilight 5:56 AM EST 7:21 PM EST
Moon No Moon Rise 10:49 AM EST (2/2)
Length of Visible Light 11h 24m
Length of Day
10h 31m
Waning Gibbous, 60% of the Moon is Illuminated
Feb 2
Waning Gibbous
Feb 3
Last Quarter
Feb 10
New
Feb 17
First Quarter
Feb 25
Full

Hourly Weather History & Observations

Time (EST) Temp. Windchill Dew Point Humidity Pressure Visibility Wind Dir Wind Speed Gust Speed Precip Events Conditions
12:54 AM 26.1 °F 21.9 °F 10.0 °F 51% 30.38 in 10.0 mi NE 3.5 mph - N/A   Clear
1:54 AM 25.0 °F - 10.9 °F 55% 30.37 in 10.0 mi Calm Calm - N/A   Clear
2:54 AM 24.1 °F - 14.0 °F 65% 30.38 in 10.0 mi Calm Calm - N/A   Clear
4:54 AM 21.9 °F - 15.1 °F 75% 30.35 in 10.0 mi Calm Calm - N/A   Clear
5:54 AM 23.0 °F - 15.1 °F 72% 30.37 in 10.0 mi Calm Calm - N/A   Clear
6:54 AM 23.0 °F - 14.0 °F 68% 30.38 in 10.0 mi Calm Calm - N/A   Clear
7:54 AM 21.9 °F - 16.0 °F 78% 30.40 in 10.0 mi Calm Calm - N/A   Clear
8:54 AM 28.0 °F 22.8 °F 10.9 °F 49% 30.40 in 10.0 mi Variable 4.6 mph - N/A   Clear
9:54 AM 30.9 °F 24.3 °F 9.0 °F 40% 30.38 in 10.0 mi SE 6.9 mph - N/A   Clear
10:54 AM 35.1 °F 27.9 °F 9.0 °F 34% 30.34 in 10.0 mi SE 9.2 mph - N/A   Clear
11:54 AM 39.9 °F 35.8 °F 9.0 °F 28% 30.30 in 10.0 mi South 5.8 mph - N/A   Clear
12:54 PM 41.0 °F 35.8 °F 9.0 °F 27% 30.25 in 10.0 mi SW 8.1 mph - N/A   Partly Cloudy
1:54 PM 43.0 °F 36.8 °F 9.0 °F 25% 30.21 in 10.0 mi South 11.5 mph 17.3 mph N/A   Mostly Cloudy
2:54 PM 45.0 °F 39.7 °F 9.0 °F 23% 30.17 in 10.0 mi South 10.4 mph - N/A   Scattered Clouds
3:54 PM 46.0 °F 44.8 °F 10.9 °F 24% 30.14 in 10.0 mi Variable 3.5 mph - N/A   Mostly Cloudy
4:54 PM 45.0 °F 40.6 °F 12.9 °F 27% 30.12 in 10.0 mi South 8.1 mph - 0.00 in   Overcast
5:54 PM 45.0 °F 41.2 °F 15.1 °F 30% 30.09 in 10.0 mi SSW 6.9 mph - N/A   Overcast
6:54 PM 45.0 °F 41.8 °F 19.9 °F 37% 30.09 in 10.0 mi SSW 5.8 mph - 0.00 in   Overcast
7:54 PM 44.1 °F 40.1 °F 21.9 °F 42% 30.09 in 10.0 mi Variable 6.9 mph - N/A   Overcast
8:54 PM 43.0 °F 38.2 °F 30.0 °F 60% 30.09 in 10.0 mi SSW 8.1 mph 24.2 mph 0.00 in   Overcast
9:14 PM 42.8 °F 37.5 °F 30.2 °F 61% 30.08 in 10.0 mi SSW 9.2 mph 21.9 mph N/A   Overcast
9:54 PM 41.0 °F 34.7 °F 34.0 °F 76% 30.09 in 10.0 mi SW 10.4 mph 19.6 mph 0.00 in Rain Light Rain
10:12 PM 41.0 °F 34.7 °F 33.8 °F 76% 30.07 in 10.0 mi SW 10.4 mph 19.6 mph 0.00 in   Overcast
10:54 PM 39.9 °F 33.4 °F 34.0 °F 79% 30.07 in 10.0 mi WSW 10.4 mph 18.4 mph 0.00 in   Overcast
11:54 PM 39.9 °F 34.5 °F 35.1 °F 83% 30.06 in 10.0 mi SW 8.1 mph 16.1 mph N/A   Overcast